Location: ??? ???
(33.4974°N, 35.4618°E)
Time: 12:36:52
(UTC+00:00)

Helios 1A Rocket - Pass Details

Date: 29 October 2020
Orbit: 562 x 587 km, 98.3° (Epoch: 26 November)

Event Time Altitude Azimuth Distance (km) Brightness Sun altitude
Rises 15:33:28 0° 143° (SE) 2,795 6.2 -9.9°
Reaches altitude 10° 15:35:48 10° 132° (SE) 1,896 5.2 -10.4°
Maximum altitude 15:39:23 29° 72° (ENE) 1,066 3.7 -11.1°
Drops below altitude 10° 15:42:57 10° 11° (N) 1,896 5.4 -11.9°
Sets 15:45:17 0° 1° (N) 2,794 6.3 -12.4°
